Lee's Summit, MO

12:48 PM CST on December 06, 2019 (GMT -0600)
Lee's Summit Municipal

Weather History for KLXT - November, 2019

Change the Weather History Date:

Wednesday, November 13, 2019

  Actual Average (WUND) Record (WUND)
Temperature  
Mean Temperature 31 °F -  
Max Temperature 41 °F - - (-1)
Min Temperature 21 °F - - (-1)
Degree Days  
Heating Degree Days 34    
Moisture  
Dew Point 16 °F    
Average Humidity 53    
Maximum Humidity 68    
Minimum Humidity 38    
Precipitation  
Precipitation 0.00 in - - ()
Sea Level Pressure  
Sea Level Pressure 30.10 in    
Wind  
Wind Speed 12 mph ()    
Max Wind Speed 20 mph    
Max Gust Speed 30 mph    
Visibility 10.0 miles    
Events      
Averages and records for this station are not official NWS values.
T = Trace of Precipitation, MM = Missing Value Source: Averaged Metar Reports

Daily Weather History Graph

Daily Weather History Graph

Search for Another Location

Airport or City:

Astronomy

Nov. 13, 2019 Rise Set
Actual Time 6:57 AM CST 5:05 PM CST
Civil Twilight 6:29 AM CST 5:33 PM CST
Nautical Twilight 5:57 AM CST 6:05 PM CST
Astronomical Twilight 5:25 AM CST 6:37 PM CST
Moon 6:09 PM CST (11/13) 7:51 AM CST (11/13)
Length of Visible Light 11h 04m
Length of Day
10h 07m
Full, 99% of the Moon is Illuminated
Nov 13
Full
Nov 19
Last Quarter
Nov 26
New
Dec 4
First Quarter
Dec 11
Full

Hourly Weather History & Observations

Time (CST) Temp. Windchill Dew Point Humidity Pressure Visibility Wind Dir Wind Speed Gust Speed Precip Events Conditions
12:53 AM 21.0 °F 7.6 °F 10.0 °F 63% 30.24 in 10.0 mi South 15.0 mph - N/A   Clear
1:53 AM 21.0 °F 7.1 °F 10.9 °F 65% 30.22 in 10.0 mi SSW 16.1 mph - N/A   Clear
3:53 AM 21.0 °F 6.6 °F 10.9 °F 65% 30.16 in 10.0 mi South 17.3 mph 26.5 mph N/A   Clear
4:53 AM 21.0 °F 7.1 °F 12.0 °F 68% 30.15 in 10.0 mi South 16.1 mph - N/A   Clear
5:53 AM 21.9 °F 6.9 °F 12.0 °F 66% 30.13 in 10.0 mi SSW 19.6 mph 29.9 mph N/A   Clear
6:53 AM 21.9 °F 9.2 °F 12.9 °F 68% 30.12 in 10.0 mi SSW 13.8 mph - N/A   Clear
7:53 AM 23.0 °F 9.2 °F 12.9 °F 65% 30.12 in 10.0 mi South 17.3 mph 29.9 mph N/A   Clear
8:53 AM 27.0 °F 14.3 °F 15.1 °F 61% 30.12 in 10.0 mi South 17.3 mph 27.6 mph N/A   Clear
9:53 AM 30.9 °F 19.4 °F 16.0 °F 54% 30.09 in 10.0 mi SSW 17.3 mph 25.3 mph N/A   Clear
10:53 AM 36.0 °F 26.7 °F 16.0 °F 44% 30.08 in 10.0 mi SSW 15.0 mph - N/A   Clear
11:53 AM 37.0 °F 27.4 °F 17.1 °F 44% 30.04 in 10.0 mi South 17.3 mph 26.5 mph N/A   Clear
12:53 PM 39.0 °F 31.8 °F 18.0 °F 43% 30.04 in 10.0 mi South 11.5 mph 20.7 mph N/A   Clear
1:53 PM 39.9 °F 33.9 °F 18.0 °F 41% 30.02 in 10.0 mi SW 9.2 mph - N/A   Clear
2:53 PM 41.0 °F 33.5 °F 18.0 °F 40% 30.03 in 10.0 mi SW 13.8 mph - N/A   Partly Cloudy
3:53 PM 41.0 °F 34.7 °F 17.1 °F 38% 30.04 in 10.0 mi SW 10.4 mph - N/A   Clear
4:53 PM 39.9 °F 35.1 °F 18.0 °F 41% 30.04 in 10.0 mi SW 6.9 mph - N/A   Clear
5:53 PM 37.9 °F 35.5 °F 18.0 °F 45% 30.07 in 10.0 mi WSW 3.5 mph - N/A   Clear
6:53 PM 37.0 °F 33.3 °F 18.0 °F 46% 30.09 in 10.0 mi West 4.6 mph - N/A   Clear
8:53 PM 37.0 °F 33.3 °F 19.0 °F 48% 30.12 in 10.0 mi WSW 4.6 mph - N/A   Overcast
9:53 PM 37.9 °F 35.5 °F 21.0 °F 51% 30.12 in 10.0 mi West 3.5 mph - N/A   Overcast
10:53 PM 37.9 °F 35.5 °F 21.0 °F 51% 30.13 in 10.0 mi West 3.5 mph - N/A   Overcast
11:53 PM 39.0 °F 33.4 °F 25.0 °F 57% 30.14 in 10.0 mi NNW 8.1 mph - N/A   Overcast